{"data":{"norad_id":54172,"epoch":"2026-09-19T06:55:46.170912Z","epoch_age_seconds":194518,"freshness":"STALE","line1":"1 54172U 22141R   26262.28872883  .00000420  00000+0  24115-4 0  9995","line2":"2 54172  53.1608 199.6994 0001403  83.7747 276.3415 15.33546140215294","mean_motion":15.3354614,"eccentricity":0.0001403,"inclination_deg":53.1608,"raan_deg":199.6994,"arg_perigee_deg":83.7747,"mean_anomaly_deg":276.3415,"bstar":2.4115e-5,"rev_number":21529,"period_min":93.900011381464,"perigee_km":464.28214342335,"apogee_km":466.20239564639,"semimajor_km":6843.3792695349,"source":"CELESTRAK","updated_at":"2026-09-21T09:00:33.090534Z"}}